Location: Bishop�s Knoyle
(51.0728°N, 2.1714°W)
Time: 07:33:42
(UTC+00:00)

BEESAT 2 - Pass Details

Date: 05 December 2021
Orbit: 498 x 513 km, 64.9° (Epoch: 20 January)

Event Time Altitude Azimuth Distance (km) Brightness Sun altitude
Exits shadow 07:09:42 - 293° (WNW) 1,846 ? -6.9°
Reaches altitude 10° 07:10:02 10° 289° (WNW) 1,749 ? -6.9°
Maximum altitude 07:12:45 18° 245° (WSW) 1,302 ? -6.5°
Drops below altitude 10° 07:15:28 10° 201° (SSW) 1,735 ? -6.1°
Sets 07:18:07 0° 182° (S) 2,613 ? -5.8°
